FW8945 Weather Reports


time (UTC)temp
F
wind
direction
speed
knots
gust
knots
rain 1hr
in
rain 24hr
in
rain mn
in
humidity
%
barometer
mb
20260505210054 83 167 2.6 15.6 0.00 0.00 0.00 30 1005.1
20260505204602 83 119 2.6 11.3 0.00 0.00 0.00 31 1005.1
20260505203058 83 239 0.0 13.0 0.00 0.00 0.00 31 1005.2
20260505201600 83 111 1.7 9.6 0.00 0.00 0.00 32 1005.4
20260505194609 84 0 1.7 11.3 0.00 0.00 0.00 33 1005.3
20260505193054 84 163 1.7 8.7 0.00 0.00 0.00 33 1005.4
20260505191554 83 164 0.0 10.4 0.00 0.00 0.00 34 1005.7
20260505190057 83 200 1.7 13.9 0.00 0.00 0.00 32 1005.9
20260505184553 82 136 1.7 11.3 0.00 0.00 0.00 36 1006.1
20260505183055 83 0 0.9 8.7 0.00 0.00 0.00 37 1006.5
20260505181600 82 136 1.7 13.0 0.00 0.00 0.00 37 1006.5
20260505180058 82 203 0.9 7.8 0.00 0.00 0.00 39 1006.6
20260505174606 82 166 0.9 9.6 0.00 0.00 0.00 39 1006.8
20260505173057 82 0 1.7 7.8 0.00 0.00 0.00 40 1006.9
20260505171608 81 169 0.0 6.1 0.00 0.00 0.00 44 1007.2
20260505170057 80 0 0.9 7.0 0.00 0.00 0.00 44 1007.1
20260505164617 79 0 0.0 7.8 0.00 0.00 0.00 45 1007.3
20260505163102 78 0 0.0 6.1 0.00 0.00 0.00 45 1007.5
20260505161613 77 0 0.0 6.1 0.00 0.00 0.00 49 1007.5
20260505153055 74 188 0.0 4.3 0.00 0.00 0.00 52 1008.5
20260505151559 73 0 0.0 8.7 0.00 0.00 0.00 53 1008.7
20260505150106 72 0 0.0 7.0 0.00 0.00 0.00 54 1008.7
20260505130110 63 0 0.0 3.5 0.00 0.00 0.00 68 1008.9
20260505124602 62 0 0.0 5.2 0.00 0.00 0.00 71 1008.6
20260505123106 60 0 0.0 0.0 0.00 0.00 0.00 74 1008.7
20260505121553 58 128 0.0 0.0 0.00 0.00 0.00 78 1008.7
20260505120108 57 0 0.0 0.0 0.00 0.00 0.00 80 1009.0
20260505114556 56 0 0.0 0.9 0.00 0.00 0.00 81 1009.0
20260505113104 55 0 0.0 0.0 0.00 0.00 0.00 82 1008.8
20260505111555 54 0 0.0 0.0 0.00 0.00 0.00 83 1008.6
20260505110111 54 0 0.0 0.0 0.00 0.00 0.00 82 1008.6
20260505101550 51 0 0.0 0.0 0.00 0.00 0.00 83 1008.7
20260505100057 51 0 0.0 0.0 0.00 0.00 0.00 83 1008.4
20260505094559 51 0 0.0 0.0 0.00 0.00 0.00 81 1008.3
20260505093108 52 0 0.0 0.0 0.00 0.00 0.00 79 1008.2
20260505091553 52 0 0.0 0.0 0.00 0.00 0.00 80 1007.9
20260505090056 52 0 0.0 0.0 0.00 0.00 0.00 81 1007.9
20260505084555 51 0 0.0 0.0 0.00 0.00 0.00 82 1007.8
20260505083059 51 0 0.0 0.0 0.00 0.00 0.00 81 1007.8
20260505081623 52 0 0.0 0.0 0.00 0.00 0.00 79 1007.9
20260505080109 52 0 0.0 0.0 0.00 0.00 0.00 79 1007.8
20260505074605 53 0 0.0 0.0 0.00 0.00 0.00 77 1007.9
20260505073055 53 0 0.0 0.0 0.00 0.00 0.00 77 1007.9
20260505071617 53 0 0.0 0.0 0.00 0.00 0.00 76 1007.9
20260505070113 53 0 0.0 0.0 0.00 0.00 0.00 75 1007.9
20260505064600 54 0 0.0 0.0 0.00 0.00 0.00 75 1008.0
20260505063057 54 0 0.0 0.0 0.00 0.00 0.00 75 1008.0
20260505061602 54 0 0.0 0.0 0.00 0.00 0.00 73 1008.1
20260505054559 56 0 0.0 0.0 0.00 0.00 0.00 69 1008.2
20260505053103 57 0 0.0 0.0 0.00 0.00 0.00 67 1008.1
20260505051553 57 0 0.0 0.0 0.00 0.00 0.00 67 1008.3
20260505041555 59 0 0.0 0.9 0.00 0.00 0.00 61 1008.5
20260505040105 59 0 0.0 0.0 0.00 0.00 0.00 62 1008.5
20260505034555 60 0 0.0 0.0 0.00 0.00 0.00 58 1008.6
20260505033055 61 0 0.0 0.0 0.00 0.00 0.00 57 1008.5
20260505031558 62 0 0.0 0.0 0.00 0.00 0.00 55 1008.7
20260505030105 62 0 0.0 0.9 0.00 0.00 0.00 52 1008.7
20260505024558 62 0 0.0 0.0 0.00 0.00 0.00 51 1008.6
20260505023102 62 0 0.0 0.0 0.00 0.00 0.00 50 1008.6
20260505021602 62 0 0.0 0.9 0.00 0.00 0.00 50 1008.5
20260505020058 63 0 0.0 0.0 0.00 0.00 0.00 50 1008.7
20260505014553 64 0 0.0 0.0 0.00 0.00 0.00 48 1008.5
20260505013055 64 0 0.0 0.0 0.00 0.00 0.00 46 1008.5
20260505011556 65 0 0.0 0.0 0.00 0.00 0.00 45 1008.2
20260505010104 65 0 0.0 0.0 0.00 0.00 0.00 45 1008.0
20260505004555 66 0 0.0 0.9 0.00 0.00 0.00 44 1007.9
20260505003105 67 0 0.0 0.0 0.00 0.00 0.00 43 1007.8
20260505001554 67 0 0.0 0.0 0.00 0.00 0.00 43 1007.5
20260505000105 68 0 0.0 4.3 0.00 0.00 0.00 41 1007.3
20260504234557 69 0 0.0 1.7 0.00 0.00 0.00 40 1006.9
20260504233054 70 0 0.0 3.5 0.00 0.00 0.00 39 1006.6
20260504231551 70 0 0.0 1.7 0.00 0.00 0.00 38 1006.5
20260504230056 71 143 0.0 4.3 0.00 0.00 0.00 37 1006.3
20260504224601 71 0 0.0 3.5 0.00 0.00 0.00 37 1006.2
20260504223058 72 0 0.0 5.2 0.00 0.00 0.00 36 1006.2
20260504221556 72 0 0.0 7.0 0.00 0.00 0.00 36 1006.4
20260504220112 72 0 0.0 7.8 0.00 0.00 0.00 35 1006.4
20260504214559 72 0 0.0 6.1 0.00 0.00 0.00 34 1006.6
20260504213100 73 0 0.0 7.0 0.00 0.00 0.00 35 1006.7
20260504211557 74 0 0.0 6.1 0.00 0.00 0.00 33 1006.8